Location: Unspecified
(48.2082°N, 0.0000°E)
Time: 22:04:35
(UTC+00:00)

Tiros 1 despin weight - Pass Details

Date: 20 June 2019
Orbit: 594 x 642 km, 48.2° (Epoch: 20 July)

Event Time Altitude Azimuth Distance (km) Brightness Sun altitude
Rises 02:32:43 0° 266° (W) 2,833 - -10.8°
Exits shadow 02:33:20 - 266° (W) 2,589 ? -10.7°
Reaches altitude 10° 02:35:01 10° 267° (W) 1,928 ? -10.5°
Maximum altitude 02:39:26 89° 345° (NNW) 599 ? -10.1°
Drops below altitude 10° 02:43:52 10° 88° (E) 1,929 ? -9.7°
Sets 02:46:09 0° 88° (E) 2,834 ? -9.4°
